STARLINK-1728, 46582

Orbit data source: Space-Track

STARLINK-1728, 46582 is a payload satellite owned by SpaceX/Seattle (US) in LEO that was launched on Tue, 06 Oct 2020 UTC via an FALCON 9 launch vehicle from the Air Force Eastern Test Range (AFETR). Payloads include a variety of satellites, spacecraft, and rockets equipped with specific instruments for various scientific and technological missions. These include communications satellites like Starlink; space stations such as the ISS; scientific satellites like the Hubble; Earth observation satellites from companies like Planet Labs, Umbra, and HawkEye 360; GPS; miniature CubeSats for education and research; and military/defense satellites.

Loading next visibility...
STARLINK-1728 details
Identifier
46582, 2020-070BC
Orbit
LEO
Last TLE update11 hours ago
Origin
Flag of USSpaceX/Seattle (US)
ManufacturerSpaceX/Seattle
MissionOperational Commercial Communications
Bus & MotorSTARLINK, Unknown motor
Mass260 kg wet, ~248 kg dry
Launch date (UTC)
2020-10-06 (4 years ago)
Launch vehicle
FALCON 9
Launch site
Air Force Eastern Test Range (AFETR)
Object type
Payload
Rocket body
Debris
Shape & HBRBox + 1 Pan, 8.86 m
Radar Cross Section13.562 m², Large (>1 m²)

Expand to show TLE details & history

TLE from 11 hours ago
0 STARLINK-1728
1 46582U 20070BC  24339.95314184  .00003987  00000-0  28646-3 0  9996
2 46582  53.0550  60.4563 0001378 109.5957 250.5181 15.06394479230492
Epoch: 2024-12-04T22:52Z
Definitive object data (Epoch: 2024-12-04T22:52:31.454Z)
Latitude-0.00003°
Longitude3.08431°
Altitude548.426 km
Speed7.589 km/s
True Right ascension04h 01m 49s
True Declination0° 00' 00"
Sunlit
Object was in full shadow at TLE epoch
Visualization TLE readout
Latitude31.91664°
Longitude28.72983°
Altitude548.893 km
Speed7.592 km/s
Apparent Right ascension01h 59m 25s
Apparent Declination-6° 57' 25"
Sunlit
Object is in full shadow
Visualization observer readout
Local Sidereal Time08:10:34
Azimuth266.428° W
Elevation-6.59°
Doppler factor1
Orbital elements
Apogee altitude548.453 km
Perigee altitude546.545 km
Semi-major axis6,925.636 km
Eccentricity0.0001378
Inclination53.055°
RAAN60.4563°
Arg. of periapsis109.5957°
True anomaly250.50321°
Mean anomaly250.5181°
Eccentric anomaly250.51066°
Mean motion3.76577 °/min
BSTAR0.00028646
Orbital period95.6 mins
Loading maneuver chart data...
Loading historical data...
Loading historical data...
Loading historical data...
Loading historical data...
Loading historical data...
Loading historical data...
Loading historical data...

STARLINK-1728 Visibility forecast

Observer location: undefined°, undefined

Span
Click to sort rows by Start time (UTC) header in descending order
Start Az.
Max El. time (UTC)
Max El. Az.
Max El.
End time (UTC)
End Az.
5 mins2024-12-05 10:18:13.640Z303.477° NW2024-12-05 10:20:13.640Z338.967° N18.57°2024-12-05 10:23:13.640Z27.119° NE
4 mins2024-12-05 13:40:13.640Z349.912° N2024-12-05 13:42:13.640Z31.358° NE20.775°2024-12-05 13:44:13.640Z66.759° ENE
6 mins2024-12-05 15:19:13.640Z305.913° NW2024-12-05 15:22:13.640Z158.611° S42.725°2024-12-05 15:25:13.640Z135.863° SSE
4 mins2024-12-06 06:53:13.640Z155.948° SSE2024-12-06 06:55:13.640Z118.005° SE17.998°2024-12-06 06:57:13.640Z86.35° E
6 mins2024-12-06 08:31:13.640Z248.681° W2024-12-06 08:34:13.640Z345.388° N39.863°2024-12-06 08:37:13.640Z41.596° NE
|